Tracking 27382 objects as of 5-Jun-2023
HD Live streaming from Space Station
objects crossing your sky now

STARLINK-30109

Track STARLINK-30109 now!
10-day predictions
STARLINK-30109 is classified as:


NORAD ID: 56298
Int'l Code: 2023-056N
Perigee: 496.9 km
Apogee: 498.9 km
Inclination: 43.0 °
Period: 94.4 minutes
Semi major axis: 6868 km
RCS: Unknown
Launch date: April 19, 2023
Source: United States (US)
Launch site: AIR FORCE EASTERN TEST RANGE (AFETR)
Your satellite tracking list
Your tracking list is empty




NASA's NSSDC Master Catalog

Two Line Element Set (TLE):
1 56298U 23056N   23155.91667824 -.00749410  00000-0 -31638-1 0  9994
2 56298  43.0012 293.4908 0001450 282.6376 162.6434 15.25021844  7668
Source of the keplerian elements: AFSPC